Year,Month,Day,Hour,Minute,Value (Times are PST for temperature in C)
2017,08,20,00,00,16.70
2017,08,20,00,01,16.70
2017,08,20,00,02,16.70
2017,08,20,00,03,16.70
2017,08,20,00,04,16.60
2017,08,20,00,05,16.60
2017,08,20,00,06,16.60
2017,08,20,00,07,16.50
2017,08,20,00,08,16.50
2017,08,20,00,09,16.40
2017,08,20,00,10,16.40
2017,08,20,00,11,16.30
2017,08,20,00,12,16.30
2017,08,20,00,13,16.30
2017,08,20,00,14,16.20
2017,08,20,00,15,16.20
2017,08,20,00,16,16.20
2017,08,20,00,17,16.20
2017,08,20,00,18,16.10
2017,08,20,00,19,16.10
2017,08,20,00,20,16.10
2017,08,20,00,21,16.10
2017,08,20,00,22,16.10
2017,08,20,00,23,16.10
2017,08,20,00,24,16.10
2017,08,20,00,25,16.10
2017,08,20,00,26,16.10
2017,08,20,00,27,16.10
2017,08,20,00,28,16.10
2017,08,20,00,29,16.10
2017,08,20,00,30,16.10
2017,08,20,00,31,16.10
2017,08,20,00,32,16.10
2017,08,20,00,33,16.10
2017,08,20,00,34,16.10
2017,08,20,00,35,16.10
2017,08,20,00,36,16.00
2017,08,20,00,37,16.00
2017,08,20,00,38,16.00
2017,08,20,00,39,15.90
2017,08,20,00,40,15.90
2017,08,20,00,41,15.90
2017,08,20,00,42,15.90
2017,08,20,00,43,15.90
2017,08,20,00,44,15.90
2017,08,20,00,45,15.90
2017,08,20,00,46,15.80
2017,08,20,00,47,15.80
2017,08,20,00,48,15.80
2017,08,20,00,49,15.80
2017,08,20,00,50,15.80
2017,08,20,00,51,15.80
2017,08,20,00,52,15.80
2017,08,20,00,53,15.80
2017,08,20,00,54,15.80
2017,08,20,00,55,15.80
2017,08,20,00,56,15.80
2017,08,20,00,57,15.80
2017,08,20,00,58,15.80
2017,08,20,00,59,15.80
2017,08,20,01,00,15.80
2017,08,20,01,01,15.80
2017,08,20,01,02,15.80
2017,08,20,01,03,15.80
2017,08,20,01,04,15.80
2017,08,20,01,05,15.80
2017,08,20,01,06,15.80
2017,08,20,01,07,15.80
2017,08,20,01,08,15.80
2017,08,20,01,09,15.80
2017,08,20,01,10,15.80
2017,08,20,01,11,15.80
2017,08,20,01,12,15.80
2017,08,20,01,13,15.80
2017,08,20,01,14,15.80
2017,08,20,01,15,15.80
2017,08,20,01,16,15.80
2017,08,20,01,17,15.80
2017,08,20,01,18,15.80
2017,08,20,01,19,15.80
2017,08,20,01,20,15.80
2017,08,20,01,21,15.80
2017,08,20,01,22,15.80
2017,08,20,01,23,15.80
2017,08,20,01,24,15.70
2017,08,20,01,25,15.70
2017,08,20,01,26,15.70
2017,08,20,01,27,15.70
2017,08,20,01,28,15.70
2017,08,20,01,29,15.70
2017,08,20,01,30,15.60
2017,08,20,01,31,15.60
2017,08,20,01,32,15.60
2017,08,20,01,33,15.60
2017,08,20,01,34,15.60
2017,08,20,01,35,15.60
2017,08,20,01,36,15.60
2017,08,20,01,37,15.60
2017,08,20,01,38,15.60
2017,08,20,01,39,15.60
2017,08,20,01,40,15.70
2017,08,20,01,41,15.70
2017,08,20,01,42,15.70
2017,08,20,01,43,15.70
2017,08,20,01,44,15.70
2017,08,20,01,45,15.70
2017,08,20,01,46,15.70
2017,08,20,01,47,15.60
2017,08,20,01,48,15.60
2017,08,20,01,49,15.60
2017,08,20,01,50,15.60
2017,08,20,01,51,15.60
2017,08,20,01,52,15.50
2017,08,20,01,53,15.50
2017,08,20,01,54,15.50
2017,08,20,01,55,15.50
2017,08,20,01,56,15.50
2017,08,20,01,57,15.50
2017,08,20,01,58,15.50
2017,08,20,01,59,15.50
2017,08,20,02,00,15.50
2017,08,20,02,01,15.50
2017,08,20,02,02,15.50
2017,08,20,02,03,15.50
2017,08,20,02,04,15.50
2017,08,20,02,05,15.40
2017,08,20,02,06,15.40
2017,08,20,02,07,15.40
2017,08,20,02,08,15.40
2017,08,20,02,09,15.40
2017,08,20,02,10,15.40
2017,08,20,02,11,15.40
2017,08,20,02,12,15.40
2017,08,20,02,13,15.40
2017,08,20,02,14,15.40
2017,08,20,02,15,15.40
2017,08,20,02,16,15.30
2017,08,20,02,17,15.30
2017,08,20,02,18,15.30
2017,08,20,02,19,15.30
2017,08,20,02,20,15.30
2017,08,20,02,21,15.30
2017,08,20,02,22,15.30
2017,08,20,02,23,15.30
2017,08,20,02,24,15.20
2017,08,20,02,25,15.20
2017,08,20,02,26,15.20
2017,08,20,02,27,15.20
2017,08,20,02,28,15.20
2017,08,20,02,29,15.10
2017,08,20,02,30,15.10
2017,08,20,02,31,15.10
2017,08,20,02,32,15.20
2017,08,20,02,33,15.20
2017,08,20,02,34,15.20
2017,08,20,02,35,15.20
2017,08,20,02,36,15.20
2017,08,20,02,37,15.30
2017,08,20,02,38,15.30
2017,08,20,02,39,15.30
2017,08,20,02,40,15.30
2017,08,20,02,41,15.30
2017,08,20,02,42,15.40
2017,08,20,02,43,15.40
2017,08,20,02,44,15.40
2017,08,20,02,45,15.40
2017,08,20,02,46,15.40
2017,08,20,02,47,15.40
2017,08,20,02,48,15.40
2017,08,20,02,49,15.40
2017,08,20,02,50,15.50
2017,08,20,02,51,15.50
2017,08,20,02,52,15.50
2017,08,20,02,53,15.40
2017,08,20,02,54,15.40
2017,08,20,02,55,15.40
2017,08,20,02,56,15.40
2017,08,20,02,57,15.40
2017,08,20,02,58,15.30
2017,08,20,02,59,15.30
2017,08,20,03,00,15.30
2017,08,20,03,01,15.30
2017,08,20,03,02,15.30
2017,08,20,03,03,15.30
2017,08,20,03,04,15.30
2017,08,20,03,05,15.30
2017,08,20,03,06,15.30
2017,08,20,03,07,15.30
2017,08,20,03,08,15.30
2017,08,20,03,09,15.30
2017,08,20,03,10,15.30
2017,08,20,03,11,15.30
2017,08,20,03,12,15.30
2017,08,20,03,13,15.20
2017,08,20,03,14,15.20
2017,08,20,03,15,15.20
2017,08,20,03,16,15.10
2017,08,20,03,17,15.10
2017,08,20,03,18,15.00
2017,08,20,03,19,15.00
2017,08,20,03,20,14.90
2017,08,20,03,21,14.90
2017,08,20,03,22,14.90
2017,08,20,03,23,14.80
2017,08,20,03,24,14.80
2017,08,20,03,25,14.80
2017,08,20,03,26,14.80
2017,08,20,03,27,14.80
2017,08,20,03,28,14.80
2017,08,20,03,29,14.80
2017,08,20,03,30,14.80
2017,08,20,03,31,14.80
2017,08,20,03,32,14.80
2017,08,20,03,33,14.80
2017,08,20,03,34,14.80
2017,08,20,03,35,14.80
2017,08,20,03,36,14.80
2017,08,20,03,37,14.80
2017,08,20,03,38,14.80
2017,08,20,03,39,14.80
2017,08,20,03,40,14.80
2017,08,20,03,41,14.80
2017,08,20,03,42,14.80
2017,08,20,03,43,14.80
2017,08,20,03,44,14.80
2017,08,20,03,45,14.80
2017,08,20,03,46,14.80
2017,08,20,03,47,14.80
2017,08,20,03,48,14.80
2017,08,20,03,49,14.80
2017,08,20,03,50,14.80
2017,08,20,03,51,14.80
2017,08,20,03,52,14.80
2017,08,20,03,53,14.70
2017,08,20,03,54,14.70
2017,08,20,03,55,14.70
2017,08,20,03,56,14.70
2017,08,20,03,57,14.60
2017,08,20,03,58,14.60
2017,08,20,03,59,14.60
2017,08,20,04,00,14.60
2017,08,20,04,01,14.50
2017,08,20,04,02,14.50
2017,08,20,04,03,14.50
2017,08,20,04,04,14.40
2017,08,20,04,05,14.40
2017,08,20,04,06,14.40
2017,08,20,04,07,14.40
2017,08,20,04,08,14.50
2017,08,20,04,09,14.50
2017,08,20,04,10,14.50
2017,08,20,04,11,14.50
2017,08,20,04,12,14.60
2017,08,20,04,13,14.60
2017,08,20,04,14,14.60
2017,08,20,04,15,14.60
2017,08,20,04,16,14.60
2017,08,20,04,17,14.60
2017,08,20,04,18,14.60
2017,08,20,04,19,14.60
2017,08,20,04,20,14.60
2017,08,20,04,21,14.60
2017,08,20,04,22,14.60
2017,08,20,04,23,14.60
2017,08,20,04,24,14.60
2017,08,20,04,25,14.60
2017,08,20,04,26,14.60
2017,08,20,04,27,14.60
2017,08,20,04,28,14.60
2017,08,20,04,29,14.50
2017,08,20,04,30,14.50
2017,08,20,04,31,14.50
2017,08,20,04,32,14.50
2017,08,20,04,33,14.50
2017,08,20,04,34,14.50
2017,08,20,04,35,14.50
2017,08,20,04,36,14.50
2017,08,20,04,37,14.50
2017,08,20,04,38,14.50
2017,08,20,04,39,14.50
2017,08,20,04,40,14.50
2017,08,20,04,41,14.50
2017,08,20,04,42,14.50
2017,08,20,04,43,14.40
2017,08,20,04,44,14.40
2017,08,20,04,45,14.40
2017,08,20,04,46,14.40
2017,08,20,04,47,14.40
2017,08,20,04,48,14.50
2017,08,20,04,49,14.50
2017,08,20,04,50,14.40
2017,08,20,04,51,14.40
2017,08,20,04,52,14.40
2017,08,20,04,53,14.40
2017,08,20,04,54,14.40
2017,08,20,04,55,14.40
2017,08,20,04,56,14.40
2017,08,20,04,57,14.30
2017,08,20,04,58,14.30
2017,08,20,04,59,14.40
2017,08,20,05,00,14.40
2017,08,20,05,01,14.30
2017,08,20,05,02,14.30
2017,08,20,05,03,14.30
2017,08,20,05,04,14.30
2017,08,20,05,05,14.30
2017,08,20,05,06,14.30
2017,08,20,05,07,14.40
2017,08,20,05,08,14.30
2017,08,20,05,09,14.40
2017,08,20,05,10,14.40
2017,08,20,05,11,14.40
2017,08,20,05,12,14.40
2017,08,20,05,13,14.40
2017,08,20,05,14,14.40
2017,08,20,05,15,14.40
2017,08,20,05,16,14.40
2017,08,20,05,17,14.40
2017,08,20,05,18,14.40
2017,08,20,05,19,14.40
2017,08,20,05,20,14.40
2017,08,20,05,21,14.40
2017,08,20,05,22,14.40
2017,08,20,05,23,14.40
2017,08,20,05,24,14.40
2017,08,20,05,25,14.40
2017,08,20,05,26,14.40
2017,08,20,05,27,14.40
2017,08,20,05,28,14.40
2017,08,20,05,29,14.40
2017,08,20,05,30,14.40
2017,08,20,05,31,14.40
2017,08,20,05,32,14.40
2017,08,20,05,33,14.40
2017,08,20,05,34,14.40
2017,08,20,05,35,14.40
2017,08,20,05,36,14.40
2017,08,20,05,37,14.40
2017,08,20,05,38,14.40
2017,08,20,05,39,14.40
2017,08,20,05,40,14.40
2017,08,20,05,41,14.40
2017,08,20,05,42,14.40
2017,08,20,05,43,14.40
2017,08,20,05,44,14.40
2017,08,20,05,45,14.40
2017,08,20,05,46,14.40
2017,08,20,05,47,14.40
2017,08,20,05,48,14.40
2017,08,20,05,49,14.40
2017,08,20,05,50,14.40
2017,08,20,05,51,14.40
2017,08,20,05,52,14.40
2017,08,20,05,53,14.40
2017,08,20,05,54,14.40
2017,08,20,05,55,14.40
2017,08,20,05,56,14.40
2017,08,20,05,57,14.40
2017,08,20,05,58,14.40
2017,08,20,05,59,14.40
2017,08,20,06,00,14.40
2017,08,20,06,01,14.40
2017,08,20,06,02,14.40
2017,08,20,06,03,14.50
2017,08,20,06,04,14.50
2017,08,20,06,05,14.50
2017,08,20,06,06,14.50
2017,08,20,06,07,14.50
2017,08,20,06,08,14.60
2017,08,20,06,09,14.60
2017,08,20,06,10,14.60
2017,08,20,06,11,14.60
2017,08,20,06,12,14.60
2017,08,20,06,13,14.60
2017,08,20,06,14,14.60
2017,08,20,06,15,14.60
2017,08,20,06,16,14.60
2017,08,20,06,17,14.60
2017,08,20,06,18,14.60
2017,08,20,06,19,14.60
2017,08,20,06,20,14.60
2017,08,20,06,21,14.60
2017,08,20,06,22,14.60
2017,08,20,06,23,14.60
2017,08,20,06,24,14.60
2017,08,20,06,25,14.60
2017,08,20,06,26,14.60
2017,08,20,06,27,14.60
2017,08,20,06,28,14.60
2017,08,20,06,29,14.60
2017,08,20,06,30,14.70
2017,08,20,06,31,14.70
2017,08,20,06,32,14.70
2017,08,20,06,33,14.70
2017,08,20,06,34,14.70
2017,08,20,06,35,14.70
2017,08,20,06,36,14.70
2017,08,20,06,37,14.70
2017,08,20,06,38,14.70
2017,08,20,06,39,14.70
2017,08,20,06,40,14.70
2017,08,20,06,41,14.60
2017,08,20,06,42,14.60
2017,08,20,06,43,14.60
2017,08,20,06,44,14.60
2017,08,20,06,45,14.60
2017,08,20,06,46,14.60
2017,08,20,06,47,14.60
2017,08,20,06,48,14.60
2017,08,20,06,49,14.60
2017,08,20,06,50,14.60
2017,08,20,06,51,14.60
2017,08,20,06,52,14.60
2017,08,20,06,53,14.60
2017,08,20,06,54,14.60
2017,08,20,06,55,14.60
2017,08,20,06,56,14.60
2017,08,20,06,57,14.60
2017,08,20,06,58,14.60
2017,08,20,06,59,14.60
2017,08,20,07,00,14.70
2017,08,20,07,01,14.70
2017,08,20,07,02,14.70
2017,08,20,07,03,14.70
2017,08,20,07,04,14.70
2017,08,20,07,05,14.70
2017,08,20,07,06,14.70
2017,08,20,07,07,14.70
2017,08,20,07,08,14.70
2017,08,20,07,09,14.70
2017,08,20,07,10,14.70
2017,08,20,07,11,14.70
2017,08,20,07,12,14.70
2017,08,20,07,13,14.70
2017,08,20,07,14,14.70
2017,08,20,07,15,14.70
2017,08,20,07,16,14.70
2017,08,20,07,17,14.70
2017,08,20,07,18,14.70
2017,08,20,07,19,14.70
2017,08,20,07,20,14.70
2017,08,20,07,21,14.70
2017,08,20,07,22,14.70
2017,08,20,07,23,14.70
2017,08,20,07,24,14.70
2017,08,20,07,25,14.70
2017,08,20,07,26,14.70
2017,08,20,07,27,14.70
2017,08,20,07,28,14.60
2017,08,20,07,29,14.60
2017,08,20,07,30,14.70
2017,08,20,07,31,14.70
2017,08,20,07,32,14.70
2017,08,20,07,33,14.70
2017,08,20,07,34,14.70
2017,08,20,07,35,14.70
2017,08,20,07,36,14.70
2017,08,20,07,37,14.60
2017,08,20,07,38,14.70
2017,08,20,07,39,14.60
2017,08,20,07,40,14.60
2017,08,20,07,41,14.60
2017,08,20,07,42,14.60
2017,08,20,07,43,14.60
2017,08,20,07,44,14.60
2017,08,20,07,45,14.70
2017,08,20,07,46,14.70
2017,08,20,07,47,14.70
2017,08,20,07,48,14.70
2017,08,20,07,49,14.70
2017,08,20,07,50,14.70
2017,08,20,07,51,14.80
2017,08,20,07,52,14.80
2017,08,20,07,53,14.80
2017,08,20,07,54,14.90
2017,08,20,07,55,15.00
2017,08,20,07,56,15.00
2017,08,20,07,57,15.00
2017,08,20,07,58,15.00
2017,08,20,07,59,15.00
2017,08,20,08,00,15.10
2017,08,20,08,01,15.40
2017,08,20,08,02,15.50
2017,08,20,08,03,15.60
2017,08,20,08,04,15.60
2017,08,20,08,05,15.70
2017,08,20,08,06,15.70
2017,08,20,08,07,15.80
2017,08,20,08,08,15.80
2017,08,20,08,09,15.90
2017,08,20,08,10,15.90
2017,08,20,08,11,16.00
2017,08,20,08,12,16.00
2017,08,20,08,13,16.10
2017,08,20,08,14,16.10
2017,08,20,08,15,16.10
2017,08,20,08,16,16.10
2017,08,20,08,17,16.20
2017,08,20,08,18,16.20
2017,08,20,08,19,16.20
2017,08,20,08,20,16.20
2017,08,20,08,21,16.20
2017,08,20,08,22,16.20
2017,08,20,08,23,16.20
2017,08,20,08,24,16.20
2017,08,20,08,25,16.20
2017,08,20,08,26,16.20
2017,08,20,08,27,16.20
2017,08,20,08,28,16.20
2017,08,20,08,29,16.20
2017,08,20,08,30,16.20
2017,08,20,08,31,16.20
2017,08,20,08,32,16.20
2017,08,20,08,33,16.20
2017,08,20,08,34,16.20
2017,08,20,08,35,16.20
2017,08,20,08,36,16.20
2017,08,20,08,37,16.20
2017,08,20,08,38,16.30
2017,08,20,08,39,16.30
2017,08,20,08,40,16.30
2017,08,20,08,41,16.40
2017,08,20,08,42,16.40
2017,08,20,08,43,16.40
2017,08,20,08,44,16.50
2017,08,20,08,45,16.50
2017,08,20,08,46,16.50
2017,08,20,08,47,16.60
2017,08,20,08,48,16.60
2017,08,20,08,49,16.60
2017,08,20,08,50,16.60
2017,08,20,08,51,16.60
2017,08,20,08,52,16.70
2017,08,20,08,53,16.70
2017,08,20,08,54,16.70
2017,08,20,08,55,16.70
2017,08,20,08,56,16.70
2017,08,20,08,57,16.80
2017,08,20,08,58,16.80
2017,08,20,08,59,16.80
2017,08,20,09,00,16.80
2017,08,20,09,01,16.80
2017,08,20,09,02,16.80
2017,08,20,09,03,16.80
2017,08,20,09,04,16.80
2017,08,20,09,05,16.80
2017,08,20,09,06,16.80
2017,08,20,09,07,16.90
2017,08,20,09,08,16.90
2017,08,20,09,09,16.90
2017,08,20,09,10,16.90
2017,08,20,09,11,16.90
2017,08,20,09,12,16.90
2017,08,20,09,13,16.90
2017,08,20,09,14,16.90
2017,08,20,09,15,16.80
2017,08,20,09,16,16.80
2017,08,20,09,17,16.80
2017,08,20,09,18,16.70
2017,08,20,09,19,16.70
2017,08,20,09,20,16.70
2017,08,20,09,21,16.70
2017,08,20,09,22,16.70
2017,08,20,09,23,16.70
2017,08,20,09,24,16.70
2017,08,20,09,25,16.70
2017,08,20,09,26,16.80
2017,08,20,09,27,16.70
2017,08,20,09,28,16.70
2017,08,20,09,29,16.70
2017,08,20,09,30,16.70
2017,08,20,09,31,16.70
2017,08,20,09,32,16.70
2017,08,20,09,33,16.70
2017,08,20,09,34,16.80
2017,08,20,09,35,16.80
2017,08,20,09,36,16.80
2017,08,20,09,37,16.90
2017,08,20,09,38,16.90
2017,08,20,09,39,16.90
2017,08,20,09,40,17.00
2017,08,20,09,41,17.10
2017,08,20,09,42,17.10
2017,08,20,09,43,17.20
2017,08,20,09,44,17.20
2017,08,20,09,45,17.20
2017,08,20,09,46,17.20
2017,08,20,09,47,17.20
2017,08,20,09,48,17.20
2017,08,20,09,49,17.20
2017,08,20,09,50,17.20
2017,08,20,09,51,17.20
2017,08,20,09,52,17.20
2017,08,20,09,53,17.20
2017,08,20,09,54,17.20
2017,08,20,09,55,17.20
2017,08,20,09,56,17.20
2017,08,20,09,57,17.30
2017,08,20,09,58,17.30
2017,08,20,09,59,17.30
2017,08,20,10,00,17.30
2017,08,20,10,01,17.40
2017,08,20,10,02,17.40
2017,08,20,10,03,17.40
2017,08,20,10,04,17.40
2017,08,20,10,05,17.50
2017,08,20,10,06,17.50
2017,08,20,10,07,17.60
2017,08,20,10,08,17.60
2017,08,20,10,09,17.70
2017,08,20,10,10,17.70
2017,08,20,10,11,17.80
2017,08,20,10,12,17.80
2017,08,20,10,13,17.90
2017,08,20,10,14,17.90
2017,08,20,10,15,18.00
2017,08,20,10,16,18.00
2017,08,20,10,17,18.00
2017,08,20,10,18,18.10
2017,08,20,10,19,18.10
2017,08,20,10,20,18.10
2017,08,20,10,21,18.10
2017,08,20,10,22,18.20
2017,08,20,10,23,18.30
2017,08,20,10,24,18.30
2017,08,20,10,25,18.30
2017,08,20,10,26,18.40
2017,08,20,10,27,18.40
2017,08,20,10,28,18.50
2017,08,20,10,29,18.50
2017,08,20,10,30,18.60
2017,08,20,10,31,18.60
2017,08,20,10,32,18.60
2017,08,20,10,33,18.60
2017,08,20,10,34,18.70
2017,08,20,10,35,18.70
2017,08,20,10,36,18.70
2017,08,20,10,37,18.70
2017,08,20,10,38,18.80
2017,08,20,10,39,18.80
2017,08,20,10,40,18.90
2017,08,20,10,41,18.90
2017,08,20,10,42,18.90
2017,08,20,10,43,18.90
2017,08,20,10,44,18.90
2017,08,20,10,45,19.00
2017,08,20,10,46,19.10
2017,08,20,10,47,19.10
2017,08,20,10,48,19.00
2017,08,20,10,49,19.00
2017,08,20,10,50,19.00
2017,08,20,10,51,19.00
2017,08,20,10,52,19.10
2017,08,20,10,53,19.10
2017,08,20,10,54,19.00
2017,08,20,10,55,19.00
2017,08,20,10,56,19.00
2017,08,20,10,57,19.10
2017,08,20,10,58,19.10
2017,08,20,10,59,19.20
2017,08,20,11,00,19.20
2017,08,20,11,01,19.20
2017,08,20,11,02,19.20
2017,08,20,11,03,19.10
2017,08,20,11,04,19.10
2017,08,20,11,05,19.00
2017,08,20,11,06,19.00
2017,08,20,11,07,19.00
2017,08,20,11,08,19.00
2017,08,20,11,09,19.00
2017,08,20,11,10,19.10
2017,08,20,11,11,19.20
2017,08,20,11,12,19.20
2017,08,20,11,13,19.20
2017,08,20,11,14,19.20
2017,08,20,11,15,19.10
2017,08,20,11,16,19.00
2017,08,20,11,17,19.00
2017,08,20,11,18,18.90
2017,08,20,11,19,18.90
2017,08,20,11,20,18.90
2017,08,20,11,21,18.90
2017,08,20,11,22,18.90
2017,08,20,11,23,19.00
2017,08,20,11,24,19.00
2017,08,20,11,25,19.00
2017,08,20,11,26,19.00
2017,08,20,11,27,18.90
2017,08,20,11,28,18.90
2017,08,20,11,29,18.90
2017,08,20,11,30,18.90
2017,08,20,11,31,18.90
2017,08,20,11,32,19.00
2017,08,20,11,33,19.10
2017,08,20,11,34,19.20
2017,08,20,11,35,19.30
2017,08,20,11,36,19.30
2017,08,20,11,37,19.30
2017,08,20,11,38,19.20
2017,08,20,11,39,19.20
2017,08,20,11,40,19.20
2017,08,20,11,41,19.20
2017,08,20,11,42,19.20
2017,08,20,11,43,19.30
2017,08,20,11,44,19.30
2017,08,20,11,45,19.40
2017,08,20,11,46,19.50
2017,08,20,11,47,19.60
2017,08,20,11,48,19.60
2017,08,20,11,49,19.60
2017,08,20,11,50,19.50
2017,08,20,11,51,19.40
2017,08,20,11,52,19.30
2017,08,20,11,53,19.20
2017,08,20,11,54,19.10
2017,08,20,11,55,19.10
2017,08,20,11,56,19.10
2017,08,20,11,57,19.10
2017,08,20,11,58,19.10
2017,08,20,11,59,19.00
2017,08,20,12,00,19.00
2017,08,20,12,01,19.00
2017,08,20,12,02,18.90
2017,08,20,12,03,18.90
2017,08,20,12,04,18.90
2017,08,20,12,05,18.90
2017,08,20,12,06,18.90
2017,08,20,12,07,18.90
2017,08,20,12,08,19.00
2017,08,20,12,09,19.00
2017,08,20,12,10,19.10
2017,08,20,12,11,19.10
2017,08,20,12,12,19.00
2017,08,20,12,13,19.00
2017,08,20,12,14,19.00
2017,08,20,12,15,19.10
2017,08,20,12,16,19.10
2017,08,20,12,17,19.20
2017,08,20,12,18,19.20
2017,08,20,12,19,19.30
2017,08,20,12,20,19.30
2017,08,20,12,21,19.40
2017,08,20,12,22,19.40
2017,08,20,12,23,19.40
2017,08,20,12,24,19.50
2017,08,20,12,25,19.50
2017,08,20,12,26,19.50
2017,08,20,12,27,19.50
2017,08,20,12,28,19.60
2017,08,20,12,29,19.60
2017,08,20,12,30,19.50
2017,08,20,12,31,19.50
2017,08,20,12,32,19.50
2017,08,20,12,33,19.40
2017,08,20,12,34,19.40
2017,08,20,12,35,19.40
2017,08,20,12,36,19.50
2017,08,20,12,37,19.50
2017,08,20,12,38,19.60
2017,08,20,12,39,19.70
2017,08,20,12,40,19.70
2017,08,20,12,41,19.70
2017,08,20,12,42,19.80
2017,08,20,12,43,19.80
2017,08,20,12,44,19.80
2017,08,20,12,45,19.80
2017,08,20,12,46,19.80
2017,08,20,12,47,19.80
2017,08,20,12,48,19.90
2017,08,20,12,49,19.90
2017,08,20,12,50,20.00
2017,08,20,12,51,20.00
2017,08,20,12,52,20.10
2017,08,20,12,53,20.10
2017,08,20,12,54,20.10
2017,08,20,12,55,20.20
2017,08,20,12,56,20.30
2017,08,20,12,57,20.30
2017,08,20,12,58,20.30
2017,08,20,12,59,20.30
2017,08,20,13,00,20.20
2017,08,20,13,01,20.10
2017,08,20,13,02,20.00
2017,08,20,13,03,19.90
2017,08,20,13,04,19.90
2017,08,20,13,05,19.90
2017,08,20,13,06,19.90
2017,08,20,13,07,19.90
2017,08,20,13,08,19.90
2017,08,20,13,09,19.80
2017,08,20,13,10,19.80
2017,08,20,13,11,19.80
2017,08,20,13,12,19.80
2017,08,20,13,13,19.80
2017,08,20,13,14,19.80
2017,08,20,13,15,19.80
2017,08,20,13,16,19.80
2017,08,20,13,17,19.80
2017,08,20,13,18,19.80
2017,08,20,13,19,19.90
2017,08,20,13,20,19.90
2017,08,20,13,21,19.90
2017,08,20,13,22,19.90
2017,08,20,13,23,19.90
2017,08,20,13,24,19.80
2017,08,20,13,25,19.80
2017,08,20,13,26,19.70
2017,08,20,13,27,19.80
2017,08,20,13,28,19.80
2017,08,20,13,29,19.80
2017,08,20,13,30,19.90
2017,08,20,13,31,19.90
2017,08,20,13,32,19.80
2017,08,20,13,33,19.80
2017,08,20,13,34,19.80
2017,08,20,13,35,19.70
2017,08,20,13,36,19.70
2017,08,20,13,37,19.60
2017,08,20,13,38,19.60
2017,08,20,13,39,19.60
2017,08,20,13,40,19.70
2017,08,20,13,41,19.70
2017,08,20,13,42,19.80
2017,08,20,13,43,19.80
2017,08,20,13,44,19.90
2017,08,20,13,45,20.00
2017,08,20,13,46,20.10
2017,08,20,13,47,20.10
2017,08,20,13,48,20.10
2017,08,20,13,49,20.10
2017,08,20,13,50,20.00
2017,08,20,13,51,19.90
2017,08,20,13,52,19.90
2017,08,20,13,53,19.90
2017,08,20,13,54,19.80
2017,08,20,13,55,19.80
2017,08,20,13,56,19.80
2017,08,20,13,57,19.80
2017,08,20,13,58,19.80
2017,08,20,13,59,19.90
2017,08,20,14,00,20.00
2017,08,20,14,01,20.20
2017,08,20,14,02,20.30
2017,08,20,14,03,20.40
2017,08,20,14,04,20.50
2017,08,20,14,05,20.50
2017,08,20,14,06,20.60
2017,08,20,14,07,20.50
2017,08,20,14,08,20.50
2017,08,20,14,09,20.50
2017,08,20,14,10,20.40
2017,08,20,14,11,20.50
2017,08,20,14,12,20.50
2017,08,20,14,13,20.50
2017,08,20,14,14,20.50
2017,08,20,14,15,20.50
2017,08,20,14,16,20.50
2017,08,20,14,17,20.60
2017,08,20,14,18,20.60
2017,08,20,14,19,20.60
2017,08,20,14,20,20.50
2017,08,20,14,21,20.40
2017,08,20,14,22,20.30
2017,08,20,14,23,20.20
2017,08,20,14,24,20.00
2017,08,20,14,25,20.00
2017,08,20,14,26,20.00
2017,08,20,14,27,20.00
2017,08,20,14,28,20.00
2017,08,20,14,29,20.10
2017,08,20,14,30,20.20
2017,08,20,14,31,20.30
2017,08,20,14,32,20.30
2017,08,20,14,33,20.40
2017,08,20,14,34,20.50
2017,08,20,14,35,20.60
2017,08,20,14,36,20.70
2017,08,20,14,37,20.80
2017,08,20,14,38,20.90
2017,08,20,14,39,20.90
2017,08,20,14,40,21.00
2017,08,20,14,41,21.10
2017,08,20,14,42,21.20
2017,08,20,14,43,21.30
2017,08,20,14,44,21.30
2017,08,20,14,45,21.30
2017,08,20,14,46,21.30
2017,08,20,14,47,21.30
2017,08,20,14,48,21.30
2017,08,20,14,49,21.30
2017,08,20,14,50,21.30
2017,08,20,14,51,21.30
2017,08,20,14,52,21.30
2017,08,20,14,53,21.40
2017,08,20,14,54,21.40
2017,08,20,14,55,21.50
2017,08,20,14,56,21.50
2017,08,20,14,57,21.50
2017,08,20,14,58,21.60
2017,08,20,14,59,21.50
2017,08,20,15,00,21.40
2017,08,20,15,01,21.30
2017,08,20,15,02,21.30
2017,08,20,15,03,21.20
2017,08,20,15,04,21.20
2017,08,20,15,05,21.20
2017,08,20,15,06,21.20
2017,08,20,15,07,21.20
2017,08,20,15,08,21.20
2017,08,20,15,09,21.30
2017,08,20,15,10,21.30
2017,08,20,15,11,21.30
2017,08,20,15,12,21.30
2017,08,20,15,13,21.30
2017,08,20,15,14,21.30
2017,08,20,15,15,21.20
2017,08,20,15,16,21.20
2017,08,20,15,17,21.20
2017,08,20,15,18,21.20
2017,08,20,15,19,21.20
2017,08,20,15,20,21.20
2017,08,20,15,21,21.20
2017,08,20,15,22,21.30
2017,08,20,15,23,21.20
2017,08,20,15,24,21.20
2017,08,20,15,25,21.20
2017,08,20,15,26,21.10
2017,08,20,15,27,21.10
2017,08,20,15,28,21.10
2017,08,20,15,29,21.10
2017,08,20,15,30,21.10
2017,08,20,15,31,21.20
2017,08,20,15,32,21.20
2017,08,20,15,33,21.30
2017,08,20,15,34,21.40
2017,08,20,15,35,21.50
2017,08,20,15,36,21.60
2017,08,20,15,37,21.70
2017,08,20,15,38,21.80
2017,08,20,15,39,21.80
2017,08,20,15,40,21.80
2017,08,20,15,41,21.80
2017,08,20,15,42,21.80
2017,08,20,15,43,21.80
2017,08,20,15,44,21.80
2017,08,20,15,45,21.80
2017,08,20,15,46,21.80
2017,08,20,15,47,21.80
2017,08,20,15,48,21.80
2017,08,20,15,49,21.80
2017,08,20,15,50,21.80
2017,08,20,15,51,21.80
2017,08,20,15,52,21.70
2017,08,20,15,53,21.70
2017,08,20,15,54,21.60
2017,08,20,15,55,21.50
2017,08,20,15,56,21.40
2017,08,20,15,57,21.30
2017,08,20,15,58,21.20
2017,08,20,15,59,21.10
2017,08,20,16,00,21.00
2017,08,20,16,01,20.90
2017,08,20,16,02,20.90
2017,08,20,16,03,20.90
2017,08,20,16,04,20.90
2017,08,20,16,05,20.90
2017,08,20,16,06,20.90
2017,08,20,16,07,20.90
2017,08,20,16,08,20.80
2017,08,20,16,09,20.70
2017,08,20,16,10,20.60
2017,08,20,16,11,20.50
2017,08,20,16,12,20.50
2017,08,20,16,13,20.40
2017,08,20,16,14,20.30
2017,08,20,16,15,20.30
2017,08,20,16,16,20.30
2017,08,20,16,17,20.30
2017,08,20,16,18,20.30
2017,08,20,16,19,20.30
2017,08,20,16,20,20.30
2017,08,20,16,21,20.30
2017,08,20,16,22,20.30
2017,08,20,16,23,20.30
2017,08,20,16,24,20.30
2017,08,20,16,25,20.40
2017,08,20,16,26,20.40
2017,08,20,16,27,20.50
2017,08,20,16,28,20.60
2017,08,20,16,29,20.70
2017,08,20,16,30,20.80
2017,08,20,16,31,20.90
2017,08,20,16,32,20.90
2017,08,20,16,33,21.00
2017,08,20,16,34,21.10
2017,08,20,16,35,21.10
2017,08,20,16,36,21.20
2017,08,20,16,37,21.30
2017,08,20,16,38,21.30
2017,08,20,16,39,21.40
2017,08,20,16,40,21.40
2017,08,20,16,41,21.40
2017,08,20,16,42,21.40
2017,08,20,16,43,21.40
2017,08,20,16,44,21.50
2017,08,20,16,45,21.50
2017,08,20,16,46,21.60
2017,08,20,16,47,21.60
2017,08,20,16,48,21.60
2017,08,20,16,49,21.60
2017,08,20,16,50,21.60
2017,08,20,16,51,21.60
2017,08,20,16,52,21.60
2017,08,20,16,53,21.50
2017,08,20,16,54,21.40
2017,08,20,16,55,21.40
2017,08,20,16,56,21.30
2017,08,20,16,57,21.30
2017,08,20,16,58,21.30
2017,08,20,16,59,21.30
2017,08,20,17,00,21.30
2017,08,20,17,01,21.40
2017,08,20,17,02,21.40
2017,08,20,17,03,21.40
2017,08,20,17,04,21.40
2017,08,20,17,05,21.50
2017,08,20,17,06,21.50
2017,08,20,17,07,21.60
2017,08,20,17,08,21.60
2017,08,20,17,09,21.60
2017,08,20,17,10,21.60
2017,08,20,17,11,21.60
2017,08,20,17,12,21.50
2017,08,20,17,13,21.50
2017,08,20,17,14,21.30
2017,08,20,17,15,21.20
2017,08,20,17,16,21.10
2017,08,20,17,17,21.10
2017,08,20,17,18,21.00
2017,08,20,17,19,21.00